Theta_e
308 309 311 312 312 312 312 313 313 320 331 331 329 328 330 331 332 334 334 334 334 334 332 331 330 329 329 329 329 327 326 325 326 322 321 321 324 325 326 328 328 328 330
305 307 309 309 310 312 313 313 314 324 331 332 330 330 330 330 332 333 335 335 335 334 333 331 330 329 328 328 327 325 322 323 324 320 316 315 319 321 325 327 327 327 329
304 306 306 307 309 309 311 313 314 323 329 330 329 327 327 327 327 330 332 334 335 334 333 331 330 328 329 327 325 324 323 321 319 320 318 312 311 314 322 324 326 326 326
304 305 307 307 309 309 309 311 314 322 328 330 329 328 324 323 325 329 330 332 334 333 332 330 329 328 327 325 324 324 322 321 318 318 319 318 317 314 313 319 321 325 324
301 303 305 306 306 309 308 311 317 327 329 330 329 327 325 323 326 327 328 329 329 331 330 329 329 328 326 325 323 323 321 321 320 318 316 317 318 319 317 313 316 320 322
300 302 304 320 322 329 328 329 328 328 329 329 327 325 324 325 325 325 325 325 326 327 328 329 328 326 324 323 323 324 322 321 320 319 318 318 317 316 318 315 313 315 320
300 301 315 321 328 328 330 330 329 326 326 327 326 325 326 326 325 325 323 323 323 324 326 325 324 324 323 324 324 323 323 322 320 320 319 319 319 321 321 317 314 314 320
300 313 318 326 328 329 328 326 326 324 325 325 323 324 326 326 326 326 325 324 322 323 324 325 323 323 324 324 324 324 323 323 321 321 320 320 321 322 320 317 316 315 318
310 320 324 327 325 324 323 324 323 323 323 323 323 323 324 325 323 322 323 323 322 323 323 323 322 323 324 325 325 324 324 324 322 322 321 320 320 322 321 322 322 320 313
319 321 323 322 321 322 322 322 322 322 322 322 323 323 323 324 323 323 322 322 322 322 322 322 323 324 325 326 326 325 324 323 322 323 322 320 321 321 323 322 321 321 319
320 322 321 321 320 322 322 321 322 322 322 322 322 322 322 323 323 322 322 322 321 321 322 323 323 324 325 325 324 324 324 323 323 323 324 323 323 322 322 322 321 321 321
321 321 321 320 320 320 321 320 321 321 322 322 322 321 321 321 321 320 320 320 320 321 323 323 323 324 324 325 324 324 325 323 323 324 324 324 324 323 323 322 321 321 322
320 321 320 320 320 320 321 320 321 321 322 322 321 320 320 320 320 319 320 321 321 321 322 322 323 326 325 325 325 324 325 323 324 324 324 324 323 322 322 322 321 322 323
320 321 320 319 320 322 322 321 320 322 322 322 320 319 320 320 320 320 320 320 321 320 322 326 326 326 326 326 327 327 325 323 324 325 325 325 323 322 322 322 321 322 321
321 320 319 319 319 320 321 321 321 321 322 322 321 320 322 322 320 320 319 320 321 321 326 325 323 323 323 319 322 325 324 323 323 325 325 325 323 321 321 322 321 322 319
321 320 321 320 320 320 320 321 321 321 323 322 322 323 323 322 321 321 319 320 320 324 326 324 321 320 319 303 308 319 325 324 323 322 322 322 318 316 312 314 315 319 319
320 320 321 321 321 321 321 320 320 323 323 323 324 326 323 322 322 320 320 320 320 325 323 320 320 318 318 300 306 311 324 324 323 322 321 319 318 318 317 310 311 310 311
320 321 321 321 321 320 320 319 320 323 324 323 324 325 323 322 324 321 319 320 324 324 322 318 317 318 314 301 307 309 325 323 322 322 320 319 318 318 320 320 319 320 319
321 321 322 321 319 319 319 318 319 322 325 322 324 324 323 321 322 319 320 320 322 322 319 317 317 319 318 302 305 317 323 323 322 322 321 321 319 303 306 319 317 316 314
321 321 321 320 318 317 317 317 318 321 321 322 323 324 323 321 320 320 319 320 320 320 319 317 319 312 318 301 303 317 324 320 320 320 318 308 313 300 305 319 317 315 315
321 321 321 319 319 315 316 316 318 320 322 324 323 323 322 321 321 320 321 320 320 320 319 318 318 319 315 311 301 308 323 320 319 318 316 313 299 299 301 309 320 315 317
320 322 320 318 316 315 317 316 317 321 322 324 323 322 321 322 321 320 321 321 320 320 317 316 317 318 318 304 301 301 308 312 320 318 317 306 297 297 299 309 299 302 311
320 321 320 316 314 316 317 316 318 320 321 321 321 321 323 321 321 320 320 319 319 319 316 316 317 317 318 314 299 297 300 306 319 320 306 296 295 296 299 297 299 305 317
321 320 316 316 313 315 316 318 316 319 320 320 320 321 322 320 321 321 321 320 319 318 318 317 316 317 318 318 315 313 312 305 309 305 307 303 303 302 304 309 315 319 318
318 318 317 317 315 314 314 314 317 319 319 320 320 321 321 321 320 319 319 321 321 318 320 319 318 317 317 318 310 312 318 318 311 311 316 318 316 315 316 318 319 318 318
318 318 316 316 315 314 313 314 317 320 320 319 320 320 320 320 320 317 313 297 301 302 303 304 313 318 305 297 297 296 296 298 301 317 317 317 317 316 316 317 317 318 315
Wind_Speed
15 10 11 12 12 10 10 10 5 7 8 5 7 5 9 6 6 6 11 13 11 12 11 6 7 7 6 5 5 3 3 3 3 2 3 3 5 6 5 4 5 5 5
8 12 15 10 11 13 11 10 9 8 9 8 5 4 6 3 4 6 8 11 12 10 11 8 7 8 5 5 4 4 3 3 3 2 0 2 2 1 4 4 4 6 3
15 15 11 11 12 10 12 8 8 8 7 6 7 5 7 5 4 5 5 6 9 10 10 10 9 7 5 5 5 5 5 3 2 5 2 1 2 1 1 2 1 3 3
15 14 12 11 14 13 7 8 7 8 8 10 7 10 3 6 3 5 4 6 8 8 8 8 8 7 4 5 4 4 3 3 3 2 4 1 1 1 1 1 0 1 2
10 13 14 13 11 8 8 8 5 8 10 9 10 8 6 4 5 7 8 7 5 5 6 8 8 6 4 4 5 4 4 3 3 3 2 3 0 0 1 1 1 1 1
9 10 9 6 6 5 1 4 8 7 10 10 10 11 12 11 9 9 7 6 4 4 6 7 6 5 4 4 4 4 5 5 3 3 3 3 3 3 2 2 1 1 1
9 8 5 1 3 3 5 6 9 8 7 9 9 10 12 12 13 10 6 6 4 3 4 5 5 3 4 5 4 4 4 4 4 5 4 3 3 2 2 3 2 2 1
7 3 3 3 4 6 6 7 10 10 8 8 9 9 10 8 9 9 7 5 4 5 5 5 5 5 5 4 4 2 3 4 3 5 5 4 4 3 3 4 4 2 2
4 4 6 5 4 6 7 7 10 9 9 9 9 9 9 9 9 8 7 5 5 4 5 5 5 5 4 4 4 3 4 3 4 5 5 5 3 4 4 2 2 3 3
7 8 6 6 4 6 7 8 8 10 8 9 9 8 8 8 9 8 8 7 6 5 6 5 5 5 4 4 4 3 3 4 3 3 6 5 3 4 3 4 3 1 3
10 10 7 6 6 6 7 8 10 10 9 10 9 10 8 8 7 7 6 6 5 6 6 5 4 3 4 4 3 4 4 5 4 4 5 5 5 3 4 4 3 3 2
13 12 8 9 8 7 7 8 8 10 8 8 9 9 8 7 7 6 6 5 6 5 5 4 2 3 4 4 4 4 4 5 6 6 5 4 4 4 4 3 5 5 3
12 12 9 9 8 8 8 7 8 9 8 9 9 7 7 7 6 6 6 5 6 5 4 4 3 3 2 1 2 3 3 4 4 5 5 4 6 5 5 5 5 5 5
9 11 9 9 8 8 8 7 7 8 7 8 7 7 6 6 6 6 5 5 5 5 2 4 4 4 3 2 2 2 2 3 2 3 5 5 8 7 7 7 8 8 9
8 7 11 9 7 7 6 6 7 7 6 7 5 5 5 5 6 6 5 5 4 3 4 5 5 4 4 3 3 3 2 4 3 2 3 6 8 9 7 7 8 11 10
7 6 8 11 10 9 7 7 6 6 6 6 5 5 6 6 5 5 5 5 4 4 5 5 5 4 3 7 6 2 3 4 5 5 7 6 10 9 11 10 8 10 11
8 10 9 10 10 9 8 7 6 6 6 6 5 6 5 6 5 5 5 4 4 4 5 5 4 3 3 6 4 4 3 5 6 8 7 7 6 9 9 11 13 12 12
9 8 7 6 6 6 6 6 6 6 6 5 6 6 6 5 5 6 5 4 3 4 5 4 3 2 4 4 7 8 6 6 7 7 8 8 8 9 10 11 11 10 11
8 10 8 6 6 7 7 7 6 6 5 6 6 6 6 5 5 6 5 3 4 3 3 3 3 2 5 4 6 7 5 7 7 6 7 8 9 9 11 13 13 14 11
9 10 9 6 8 6 7 8 6 6 6 6 6 6 6 6 6 6 6 3 3 3 3 4 3 4 5 5 8 7 5 6 5 6 7 11 10 11 13 14 13 14 12
11 10 11 10 9 8 7 7 7 8 6 6 5 6 5 5 5 5 3 4 4 5 4 4 3 4 4 4 6 9 5 5 5 5 6 6 11 11 11 11 13 13 14
10 13 11 9 7 9 9 7 9 6 6 6 6 6 6 5 5 6 3 4 5 5 4 4 4 3 3 5 4 8 8 8 6 7 6 5 10 12 11 9 14 17 13
10 11 12 10 7 9 9 9 6 7 6 6 6 5 6 5 6 6 5 4 4 4 4 3 3 2 2 3 6 7 10 11 7 6 10 12 11 13 12 12 15 12 9
4 9 11 11 9 9 9 8 8 7 8 6 6 5 6 6 4 4 4 4 4 4 5 4 3 3 2 4 3 4 6 9 9 11 8 9 10 9 9 7 6 7 7
4 4 6 10 11 10 8 7 8 9 7 6 6 4 4 5 5 4 2 3 2 4 5 4 4 4 4 4 6 8 6 6 8 9 5 6 6 5 6 5 6 6 7
9 5 5 5 7 10 8 7 8 9 8 7 5 5 5 4 4 4 3 7 3 6 6 9 6 2 3 10 10 10 12 15 13 5 6 5 6 6 6 7 6 5 6
Wind_Direction
281 272 269 272 281 274 267 258 223 206 165 166 162 174 196 175 163 161 155 173 179 180 182 162 165 155 184 180 175 128 183 226 216 274 280 264 237 235 223 217 233 226 213
262 266 264 266 264 263 266 259 230 175 180 176 168 150 136 141 139 141 171 176 181 165 170 172 187 159 148 168 159 155 174 227 196 197 252 309 328 265 232 216 215 220 186
253 259 266 262 273 261 260 262 218 181 178 153 124 90 88 93 121 164 159 174 164 169 165 160 154 157 161 173 170 173 174 192 186 209 166 173 245 311 15 201 194 209 207
242 251 255 268 265 267 269 256 214 179 159 155 149 158 140 145 156 159 144 150 146 160 164 143 139 154 152 168 180 170 165 157 186 197 219 186 168 177 22 25 214 175 217
231 250 249 257 279 290 278 263 182 148 149 147 143 139 119 104 124 122 127 112 115 147 137 142 149 143 152 166 169 159 176 181 175 176 153 205 212 128 102 76 3 57 303
255 251 259 286 297 306 268 137 125 121 137 140 143 137 135 135 128 128 125 123 120 126 129 132 129 142 146 161 181 182 182 190 188 184 183 174 171 190 171 119 94 34 265
254 260 254 228 260 200 152 127 114 106 113 125 127 131 136 133 128 128 126 132 110 117 134 118 136 136 157 185 177 178 199 191 193 191 204 202 198 160 146 120 128 145 134
254 232 138 142 153 140 102 107 112 110 102 109 108 106 113 118 123 137 140 123 125 132 146 132 139 158 181 182 184 184 199 202 212 209 212 213 208 181 163 154 153 137 135
194 155 149 133 125 102 90 104 102 94 101 110 109 102 108 118 124 114 113 122 125 134 140 150 154 173 180 183 190 201 215 193 206 214 211 215 207 195 179 166 158 147 155
149 152 132 122 95 94 97 87 94 107 111 104 106 109 107 108 117 123 126 130 138 132 137 139 157 178 192 196 197 212 211 221 221 219 210 206 193 186 180 182 170 158 136
160 146 127 107 103 90 93 98 102 104 99 105 109 109 106 107 105 112 128 134 123 136 143 153 162 185 213 218 201 230 214 219 215 222 215 215 182 180 182 180 166 174 136
149 138 126 115 104 102 103 106 105 104 104 104 103 101 104 106 109 115 129 135 129 135 132 147 167 239 246 220 209 237 219 213 207 221 212 221 163 170 177 166 168 171 133
138 126 119 114 118 118 119 111 108 108 108 111 110 106 112 116 123 129 135 124 123 130 154 151 197 154 85 29 246 231 230 207 221 216 198 180 148 156 148 139 137 133 129
154 130 120 119 123 128 129 122 114 121 119 119 123 129 140 137 131 131 128 131 135 141 151 130 120 84 78 21 328 242 187 143 151 194 193 164 158 163 145 138 136 131 120
146 144 134 130 124 130 125 126 127 126 129 126 123 125 115 111 127 127 128 136 141 154 139 116 88 74 62 40 13 69 99 110 83 62 116 139 153 147 142 143 142 139 130
155 142 148 141 148 151 146 143 137 134 126 118 134 131 117 129 140 135 144 147 142 145 131 104 102 84 64 7 31 49 101 116 105 90 85 104 112 110 110 110 115 146 140
162 151 166 167 155 157 151 157 143 126 130 137 141 138 141 145 151 142 141 145 141 139 119 107 104 86 49 12 92 86 100 106 111 109 107 98 103 113 111 98 94 87 112
160 150 148 166 153 148 146 125 128 139 147 149 147 138 153 149 163 135 141 147 142 156 125 117 99 83 48 24 100 103 94 96 97 108 121 124 120 126 121 116 103 99 116
170 159 152 155 144 158 149 129 130 146 140 156 155 157 154 151 129 127 152 138 129 112 117 117 130 89 66 38 113 112 95 98 96 108 108 112 118 123 111 111 107 98 86
160 154 151 145 146 158 142 130 145 152 164 170 167 159 154 153 141 151 159 127 126 128 126 120 100 86 86 71 126 109 108 102 94 83 96 99 120 118 114 114 115 111 109
159 143 146 164 168 141 141 143 149 183 185 150 150 151 152 149 134 143 136 129 132 131 127 112 86 80 50 93 122 116 114 117 105 101 103 111 115 107 104 116 125 118 115
158 155 151 155 150 144 147 152 180 175 148 156 151 140 145 137 134 139 129 128 132 135 132 120 99 76 68 80 115 117 112 121 120 113 110 101 108 103 99 108 121 113 108
166 160 157 144 150 154 157 168 190 152 149 147 146 154 133 131 141 138 141 128 142 144 140 135 132 110 86 82 84 95 108 112 110 112 108 106 96 97 90 123 120 113 127
183 154 141 153 159 162 163 181 151 151 153 149 148 159 140 137 134 127 138 141 149 149 148 151 156 138 115 118 117 111 99 91 92 104 106 101 90 86 114 124 107 125 137
111 112 157 166 172 160 154 149 153 149 157 148 149 157 135 152 137 107 132 153 167 162 158 165 164 160 158 167 152 145 136 126 119 114 118 120 117 121 129 118 124 131 136
32 56 97 141 170 150 146 146 155 157 150 151 156 168 163 155 142 142 135 43 46 161 152 153 153 180 139 136 135 128 123 126 132 126 135 130 130 137 151 157 154 158 150